Waukesha, WI

2:53 AM CDT on March 26, 2017 (GMT -0500)
Waukesha County

Weather History for KUES - July, 2013

Change the Weather History Date:

Tuesday, July 23, 2013

  Actual Average Record
Temperature  
Mean Temperature 63 °F -  
Max Temperature 71 °F 82 °F 96 °F (2012)
Min Temperature 55 °F 63 °F 32 °F (2006)
Degree Days  
Heating Degree Days 2    
Growing Degree Days 13 (Base 50)    
Moisture  
Dew Point 57 °F    
Average Humidity 79    
Maximum Humidity 94    
Minimum Humidity 50    
Precipitation  
Precipitation 0.00 in - - ()
Sea Level Pressure  
Sea Level Pressure 29.85 in    
Wind  
Wind Speed 6 mph (NW)    
Max Wind Speed 15 mph    
Max Gust Speed 17 mph    
Visibility 10 miles    
Events Rain    
Averages and records for this station are not official NWS values.
T = Trace of Precipitation, MM = Missing Value Source: NWS Daily Summary

Daily Weather History Graph

Daily Weather History Graph

Search for Another Location

Airport or City:

Trip Planner

Search our weather history database for the weather conditions in past years. The results will help you decide how hot, cold, wet, or windy it might be!

Date:

Astronomy

Jul. 23, 2013 Rise Set
Actual Time 5:34 AM CDT 8:23 PM CDT
Civil Twilight 5:01 AM CDT 8:56 PM CDT
Nautical Twilight 4:19 AM CDT 9:38 PM CDT
Astronomical Twilight 3:30 AM CDT 10:26 PM CDT
Moon 8:47 PM CDT (7/23) 6:46 AM CDT (7/23)
Length of Visible Light 15h 55m
Length of Day
14h 48m
Full, 99% of the Moon is Illuminated
Jul 23
Full
Jul 29
Last Quarter
Aug 6
New
Aug 14
First Quarter
Aug 20
Full

Hourly Weather History & Observations

Time (CDT) Temp. Dew Point Humidity Pressure Visibility Wind Dir Wind Speed Gust Speed Precip Events Conditions
12:15 AM 68.0 °F 60.8 °F 78% 29.78 in 10.0 mi SW 8.1 mph - N/A Rain Rain
12:35 AM 64.4 °F 60.8 °F 88% 29.75 in 10.0 mi SSW 4.6 mph - N/A Rain Light Rain
12:55 AM 64.4 °F 60.8 °F 88% 29.75 in 10.0 mi WNW 4.6 mph - N/A Rain Light Rain
1:15 AM 64.4 °F 62.6 °F 94% 29.74 in 10.0 mi West 6.9 mph - N/A   Mostly Cloudy
1:35 AM 64.4 °F 62.6 °F 94% 29.74 in 10.0 mi SW 5.8 mph - N/A   Scattered Clouds
1:55 AM 64.4 °F 62.6 °F 94% 29.73 in 10.0 mi SW 6.9 mph - N/A   Clear
2:15 AM 64.4 °F 62.6 °F 94% 29.73 in 10.0 mi SSW 5.8 mph - N/A   Clear
2:35 AM 64.4 °F 62.6 °F 94% 29.74 in 10.0 mi SW 3.5 mph - N/A   Clear
2:55 AM 64.4 °F 62.6 °F 94% 29.74 in 10.0 mi Calm Calm - N/A   Clear
3:15 AM 64.4 °F 60.8 °F 88% 29.74 in 10.0 mi Calm Calm - N/A   Clear
3:35 AM 62.6 °F 60.8 °F 94% 29.73 in 10.0 mi West 3.5 mph - N/A   Clear
3:55 AM 62.6 °F 60.8 °F 94% 29.73 in 10.0 mi Calm Calm - N/A   Clear
4:15 AM 62.6 °F 60.8 °F 94% 29.73 in 10.0 mi Calm Calm - N/A   Clear
4:35 AM 62.6 °F 60.8 °F 94% 29.74 in 10.0 mi WNW 5.8 mph - N/A   Scattered Clouds
4:55 AM 64.4 °F 60.8 °F 88% 29.75 in 10.0 mi NW 5.8 mph - N/A   Mostly Cloudy
5:15 AM 64.4 °F 62.6 °F 94% 29.76 in 10.0 mi NW 8.1 mph - N/A   Overcast
5:35 AM 64.4 °F 62.6 °F 94% 29.76 in 10.0 mi NNW 6.9 mph - N/A   Overcast
5:45 AM 66.2 °F 62.6 °F 88% 29.77 in 10.0 mi NNW 6.9 mph - N/A   Mostly Cloudy
6:45 AM 66.2 °F 60.8 °F 83% 29.79 in 10.0 mi NNW 6.9 mph - N/A   Overcast
7:45 AM 66.2 °F 55.4 °F 68% 29.81 in 10.0 mi NNW 11.5 mph - N/A   Mostly Cloudy
8:45 AM 68.0 °F 57.2 °F 68% 29.83 in 10.0 mi NNW 11.5 mph - N/A   Mostly Cloudy
9:45 AM 69.8 °F 53.6 °F 56% 29.84 in 10.0 mi North 10.4 mph - N/A   Scattered Clouds
10:45 AM 69.8 °F 57.2 °F 64% 29.86 in 10.0 mi NW 9.2 mph 16.1 mph N/A   Scattered Clouds
11:45 AM 71.6 °F 53.6 °F 53% 29.88 in 10.0 mi NW 12.7 mph 16.1 mph N/A   Mostly Cloudy
12:45 PM 69.8 °F 53.6 °F 56% 29.90 in 10.0 mi NW 8.1 mph 17.3 mph N/A   Mostly Cloudy
1:45 PM 69.8 °F 53.6 °F 56% 29.90 in 10.0 mi NNW 12.7 mph - N/A   Mostly Cloudy
2:45 PM 71.6 °F 51.8 °F 50% 29.91 in 10.0 mi NW 15.0 mph - N/A   Mostly Cloudy
3:45 PM 71.6 °F 53.6 °F 53% 29.92 in 10.0 mi NNW 9.2 mph - N/A   Mostly Cloudy
4:45 PM 68.0 °F 51.8 °F 56% 29.93 in 10.0 mi North 10.4 mph - N/A   Mostly Cloudy
5:45 PM 68.0 °F 50.0 °F 52% 29.92 in 10.0 mi North 13.8 mph - N/A   Scattered Clouds
6:45 PM 66.2 °F 50.0 °F 56% 29.93 in 10.0 mi North 9.2 mph - N/A   Scattered Clouds
7:45 PM 62.6 °F 53.6 °F 72% 29.95 in 10.0 mi ENE 5.8 mph - N/A   Mostly Cloudy
8:45 PM 60.8 °F 53.6 °F 77% 29.96 in 10.0 mi ENE 6.9 mph - N/A   Clear
9:15 PM 59.0 °F 51.8 °F 77% 29.98 in 10.0 mi NE 5.8 mph - N/A   Clear
9:35 PM 59.0 °F 51.8 °F 77% 29.99 in 10.0 mi NE 4.6 mph - N/A   Clear
9:55 PM 59.0 °F 51.8 °F 77% 29.99 in 10.0 mi NE 5.8 mph - N/A   Clear
10:15 PM 57.2 °F 51.8 °F 82% 30.00 in 10.0 mi NE 5.8 mph - N/A   Clear
10:35 PM 57.2 °F 51.8 °F 82% 30.00 in 10.0 mi NNE 3.5 mph - N/A   Clear
10:55 PM 57.2 °F 51.8 °F 82% 30.01 in 10.0 mi Calm Calm - N/A   Clear
11:15 PM 55.4 °F 51.8 °F 88% 30.01 in 10.0 mi Calm Calm - N/A   Clear
11:35 PM 55.4 °F 51.8 °F 88% 30.02 in 10.0 mi Calm Calm - N/A   Clear
11:55 PM 55.4 °F 51.8 °F 88% 30.02 in 10.0 mi Calm Calm - N/A   Clear